Flag for France Weather past 2 weeks in Lille, France

Now
61 °F

Low clouds.


Feels Like: 61 °F
Forecast: 60 / 67 °F
Wind: 10 mph from Northwest

Location: Lille Airport

Current Time: Jul 10, 2014 at 7:21:34 PM

Latest Report: Jul 10, 2014 at 6:30 PM


Visibility: 4 mi

Pressure: 29.98 "Hg

Humidity: 94%

Dew point: 59 °F

Location of LilleLocation

Historic Weather in Lille — Graph

°F

Lille temperature yesterday

Maximum temperature yesterday: 59 °F (at 12:00 AM)
Minimum temperature yesterday: 55 °F (at 6:00 AM)
Average temperature yesterday: 58 °F

Past Weeks' High & Low Weather Summary

 TemperatureHumidityPressure
High81 °F (Jul 3, 5:30 PM)100% (Jun 27, 10:30 PM)30.21 "Hg (Jun 27, 10:30 PM)
Low50 °F (Jun 30, 3:30 AM)28% (Jul 3, 6:00 PM)29.65 "Hg (Jul 5, 4:00 AM)
Average62 °F75%29.96 "Hg
* Reported Jun 25 6:00 PM — Jul 10 6:00 PM, Lille, Weather by CustomWeather, © 2014

Note: Actual official high and low records may vary slightly from our data, if they occured in-between our weather recording intervals... More about our weather records

Advertising

Lille weather history for previous 24 hours

 ConditionsComfort  
Time TempWeatherWind HumidityBarometerVisibility
6:00 PM
Jul 10
63 °FLow clouds.14 mph88%29.95 "Hg4 mi
5:30 PM63 °FLow clouds.13 mph88%29.95 "Hg5 mi
5:00 PM63 °FLow clouds.15 mph94%29.95 "Hg5 mi
4:30 PM63 °FLow clouds.12 mph94%29.95 "Hg5 mi
4:00 PM63 °FLow clouds.13 mph94%29.95 "Hg4 mi
3:30 PM63 °FLow clouds.12 mph94%29.95 "Hg4 mi
3:00 PM63 °FLow clouds.15 mph94%29.95 "Hg4 mi
2:30 PM63 °FLow clouds.14 mph94%29.92 "Hg4 mi
2:00 PM63 °FLow clouds.16 mph94%29.92 "Hg4 mi
1:30 PM61 °FLow clouds.14 mph100%29.92 "Hg4 mi
1:00 PM61 °FLow clouds.15 mph100%29.92 "Hg4 mi
12:30 PM61 °FDrizzle. Low clouds.14 mph100%29.92 "Hg2 mi
12:00 PM61 °FDrizzle. Low clouds.14 mph100%29.92 "Hg2 mi
11:30 AM61 °FDrizzle. Low clouds.15 mph100%29.89 "Hg1 mi
11:00 AM61 °FDrizzle. Low clouds.14 mph100%29.89 "Hg2 mi
10:30 AM61 °FDrizzle. Low clouds.15 mph100%29.89 "Hg2 mi
10:00 AM61 °FDrizzle. Low clouds.15 mph100%29.89 "Hg2 mi
9:30 AM61 °FDrizzle. Low clouds.14 mph100%29.89 "Hg2 mi
9:00 AM61 °FDrizzle. Low clouds.14 mph100%29.86 "Hg2 mi
8:30 AM61 °FDrizzle. Low clouds.15 mph94%29.86 "Hg2 mi
8:00 AM61 °FDrizzle. Low clouds.14 mph94%29.86 "Hg2 mi
7:30 AM61 °FDrizzle. Low clouds.15 mph94%29.86 "Hg2 mi
7:00 AM61 °FDrizzle. Low clouds.14 mph94%29.86 "Hg2 mi
6:30 AM59 °FDrizzle. Low clouds.15 mph100%29.86 "Hg2 mi
6:00 AM59 °FPassing clouds.14 mph100%29.83 "Hg2 mi
5:30 AM59 °FPassing clouds.13 mph100%29.83 "Hg2 mi
5:00 AM59 °FPassing clouds.17 mph100%29.83 "Hg2 mi
4:30 AM59 °FDrizzle. Fog.18 mph100%29.83 "Hg2 mi
4:00 AM59 °FDrizzle. Fog.15 mph100%29.86 "Hg2 mi
3:30 AM59 °FDrizzle. Fog.16 mph100%29.83 "Hg2 mi
3:00 AM59 °FDrizzle. Fog.17 mph100%29.83 "Hg2 mi
2:30 AM59 °FDrizzle. Fog.18 mph100%29.83 "Hg2 mi
2:00 AM59 °FPassing clouds.18 mph100%29.83 "Hg1 mi
1:30 AM59 °FLight rain. Passing clouds.18 mph100%29.83 "HgN/A
1:00 AM59 °FRain showers. Passing clouds.20 mph94%29.83 "Hg2 mi
12:30 AM59 °FPassing clouds.20 mph94%29.86 "Hg5 mi
12:00 AM59 °FLight rain. Passing clouds.20 mph94%29.86 "Hg2 mi
11:30 PM
Jul 9
59 °FLight rain. Passing clouds.24 mph94%29.86 "Hg4 mi
11:00 PM59 °FRain. Passing clouds.20 mph94%29.86 "Hg2 mi
10:30 PM59 °FLight rain. Partly sunny.20 mph94%29.86 "HgN/A
10:00 PM57 °FLight rain. Partly sunny.22 mph100%29.86 "Hg4 mi
9:30 PM57 °FLight rain. Partly sunny.20 mph100%29.86 "Hg4 mi
9:00 PM57 °FLight rain. Partly sunny.22 mph100%29.89 "Hg3 mi
8:30 PM57 °FLight rain. Broken clouds.21 mph100%29.89 "Hg2 mi
8:00 PM57 °FLight rain. Broken clouds.18 mph100%29.89 "Hg2 mi
7:30 PM57 °FLight rain. Partly sunny.20 mph94%29.89 "Hg4 mi
7:00 PM57 °FLight rain. Partly sunny.20 mph94%29.89 "Hg4 mi
Weather by CustomWeather, © 2014

See weather overviewHow to use our weather pages